Regional Weather Roundup
Issued by NWS

Home | Current Version | Previous Version | Text Only | Print | Product List | Glossary On
Versions: 1 2 3 4 5 6 7 8 9 10 11 12 13 14 15 16 17 18 19 20 21 22 23 24 25 26 27 28 29 30 31 32 33 34 35 36 37 38 39 40 41 42 43 44 45 46 47 48 49 50
000
ASUS42 KFFC 251703
RWRGA
WEATHER ROUNDUP FOR GEORGIA
NATIONAL WEATHER SERVICE PEACHTREE CITY GA
100 PM EDT SAT APR 25 2015

NOTE: "FAIR" INDICATES FEW OR NO CLOUDS BELOW 12,000 FEET WITH NO
SIGNIFICANT WEATHER AND/OR OBSTRUCTIONS TO VISIBILITY.

* = USE WITH CAUTION. THE STATIONS MARKED WITH AN ASTERISK MAY NOT
REPORT WEATHER SUCH AS PRECIPITATION, FOG, OR THUNDER AND ARE NOT
QUALITY CONTROLLED BY NWS.

THE REMARK "TC" DENOTES TEMPERATURE READING IN DEGREES CELSIUS.

GAZ001>058-251800-
NORTH GEORGIA

CITY           SKY/WX    TMP DP  RH WIND       PRES   REMARKS
ATLANTA        PTSUNNY   73  63  70 SW14      29.78F
ATHENS         CLOUDY    65  62  90 CALM      29.76F
CHAMBLEE       CLOUDY    67  62  84 S8        29.78F
PEACHTREE CITY PTSUNNY   74  66  76 SW5       29.78F
ROME           PTSUNNY   72  65  78 VRB7      29.74F
WEST ATLANTA   PTSUNNY   71  63  75 SW6       29.76F
GAINESVILLE    CLOUDY    64  59  83 VRB7      29.78F
CARTERSVILLE   PTSUNNY   71  63  75 VRB5      29.75F


CITY           SKY/WX    TMP DP  RH WIND       PRES   REMARKS
DALTON*        CLOUDY    68  63  83 S5        29.75S
LAWRENCEVILLE* CLOUDY    64  57  77 SE7       29.77
MARIETTA       CLOUDY    70  64  83 W6        29.77F
KENNESAW*      PTSUNNY   68  61  77 SW9       29.79F
BLAIRSVILLE*     N/A     68  38  34 S6        29.76F
$$

GAZ059>098-102>109-251800-
CENTRAL GEORGIA

CITY           SKY/WX    TMP DP  RH WIND       PRES   REMARKS
AUGUSTA-BUSH   CLOUDY    67  64  90 S12       29.78F
AUGUSTA-DANIEL CLOUDY    66  62  87 S8        29.79F
COLUMBUS       PTSUNNY   75  69  81 VRB5      29.78F
MACON          CLOUDY    72  67  84 SW10      29.78F
ROBINS AFB     CLOUDY    73  67  81 SW7       29.77F


CITY           SKY/WX    TMP DP  RH WIND       PRES   REMARKS
LAGRANGE*      CLOUDY    78  72  82 W8        29.79S
SYLVANIA*      CLOUDY    69  67  94 S6        29.81S
MILLEDGEVILLE* PTSUNNY   72  68  88 CALM      29.78F
$$

GAZ099>101-110>166-251800-
SOUTH GEORGIA

CITY           SKY/WX    TMP DP  RH WIND       PRES   REMARKS
SAVANNAH       TSTM      68  66  93 SE15      29.82F
VALDOSTA       TSTM      69  69 100 VRB5      29.88F
ALMA           CLOUDY    74  67  78 SW10      29.82F
ST SIMONS      CLOUDY    74  69  85 SW8       29.85F
FT STEWART     LGT RAIN  68  66  94 S6        29.83S
ALBANY         PTSUNNY   77  70  79 SW14G22   29.82F
HUNTER AFB     LGT RAIN  68  68 100 E9        29.82F
MOODY AFB      LGT RAIN  72  69  90 SW14      29.82F
BRUNSWICK      CLOUDY    73  70  88 S5        29.86F


CITY           SKY/WX    TMP DP  RH WIND       PRES   REMARKS
BAINBRIDGE*    MOSUNNY   81  73  78 SW8       29.83F
MOULTRIE*      PTSUNNY   72  72 100 SW9       29.83F
VIDALIA*       CLOUDY    70  68  94 S6        29.81F
WAYCROSS*      LGT RAIN  76  73  91 SW10      29.82F
DOUGLAS*       LGT RAIN  75  70  83 SW9       29.84F
$$


USA.gov is the U.S. government's official web portal to all federal, state and local government web resources and services.